Location: Bremen
(53.0758°N, 8.8072°E)
Time: 14:05:21
(UTC+01:00)

ISS - Pass Details

Date: 26 January 2026
Orbit: 413 x 428 km, 51.6° (Epoch: 13 February)

Event Time Altitude Azimuth Distance (km) Brightness Sun altitude
Rises 17:57:13 0° 277° (W) 2,362 1.3 -8.9°
Reaches altitude 10° 17:59:21 10° 272° (W) 1,500 0.3 -9.2°
Maximum altitude 18:02:37 49° 197° (SSW) 548 -2.9 -9.7°
Drops below altitude 10° 18:05:53 10° 121° (ESE) 1,505 -1.3 -10.2°
Enters shadow 18:06:30 - 119° (ESE) 1,746 -1.0 -10.3°
Exits shadow 18:40:13 -69° 107° (ESE) 12,370 3.6 -15.2°
